Flag for Switzerland Weather past 2 weeks in Winterthur, Switzerland

Now
61 °F

Clear.


Feels Like: 61 °F
Forecast: 52 / 77 °F
Wind: 2 mph from North

Location: Zurich-Kloten

Current Time: Sep 17, 2014 at 11:38:59 PM

Latest Report: Sep 17, 2014 at 10:50 PM


Visibility: 10 mi

Pressure: 29.89 "Hg

Humidity: 94%

Dew point: 59 °F

Location of WinterthurLocation

Historic Weather in Winterthur — Graph

°F

Winterthur temperature yesterday

Maximum temperature yesterday: 73 °F (at 3:50 PM)
Minimum temperature yesterday: 54 °F (at 4:20 AM)
Average temperature yesterday: 62 °F

Past Weeks' High & Low Weather Summary

 TemperatureHumidityPressure
High81 °F (Sep 8, 2:50 PM)100% (Sep 5, 8:20 AM)30.15 "Hg (Sep 5, 8:20 AM)
Low48 °F (Sep 12, 5:50 AM)46% (Sep 11, 3:50 PM)29.86 "Hg (Sep 17, 4:50 PM)
Average62 °F82%30.02 "Hg
* Reported Sep 2 10:20 PM — Sep 17 10:20 PM, Winterthur, Weather by CustomWeather, © 2014

Note: Actual official high and low records may vary slightly from our data, if they occured in-between our weather recording intervals... More about our weather records

Advertising

Winterthur weather history for previous 24 hours

 ConditionsComfort  
Time TempWeatherWind HumidityBarometerVisibility
10:20 PM
Sep 17
61 °FClear.1 mph94%29.92 "Hg10 mi
9:50 PM64 °FClear.1 mph88%29.89 "Hg10 mi
9:20 PM64 °FClear.3 mph88%29.89 "Hg10 mi
8:50 PM64 °FPassing clouds.3 mph88%29.89 "HgN/A
8:20 PM63 °FSunny.5 mph88%29.89 "Hg10 mi
7:50 PM68 °FSunny.3 mph78%29.89 "Hg10 mi
7:20 PM70 °FSunny.3 mph69%29.89 "Hg10 mi
6:50 PM70 °FSunny.5 mph69%29.89 "Hg10 mi
6:20 PM72 °FPassing clouds.3 mph65%29.89 "HgN/A
5:50 PM72 °FSunny.5 mph65%29.86 "Hg10 mi
5:20 PM73 °FPassing clouds.6 mph57%29.86 "HgN/A
4:50 PM73 °FPassing clouds.5 mph61%29.86 "HgN/A
4:20 PM73 °FPassing clouds.5 mph57%29.89 "HgN/A
3:50 PM72 °FPassing clouds.6 mph61%29.89 "HgN/A
3:20 PM72 °FPassing clouds.3 mph69%29.89 "HgN/A
2:50 PM72 °FPassing clouds.7 mph69%29.89 "HgN/A
2:20 PM72 °FPassing clouds.6 mph65%29.89 "HgN/A
1:50 PM72 °FPassing clouds.5 mph65%29.92 "HgN/A
1:20 PM72 °FPassing clouds.5 mph65%29.92 "HgN/A
12:50 PM68 °FScattered clouds.6 mph73%29.92 "HgN/A
12:20 PM68 °FPassing clouds.3 mph69%29.92 "HgN/A
11:50 AM66 °FPassing clouds.3 mph73%29.95 "HgN/A
11:20 AM64 °FPassing clouds.6 mph78%29.95 "HgN/A
10:50 AM64 °FScattered clouds.5 mph78%29.95 "Hg5 mi
10:20 AM63 °FPartly sunny.3 mph83%29.95 "Hg4 mi
9:50 AM61 °FFog.3 mph88%29.95 "Hg3 mi
9:20 AM59 °FFog.1 mph94%29.95 "Hg3 mi
8:50 AM59 °FFog.2 mph94%29.95 "Hg3 mi
8:20 AM57 °FFog.1 mph100%29.95 "Hg2 mi
7:50 AM57 °FFog.1 mph100%29.95 "Hg1 mi
7:20 AM55 °FFog.3 mph100%29.95 "Hg1 mi
6:50 AM55 °FFog.2 mph100%29.95 "Hg1 mi
6:20 AM54 °FPassing clouds.No wind100%29.95 "Hg1 mi
5:50 AM54 °FPassing clouds.1 mph100%29.95 "Hg1 mi
5:20 AM52 °FPassing clouds.1 mph100%29.95 "Hg1 mi
4:50 AM54 °FLight fog.No wind94%29.95 "Hg2 mi
4:20 AM54 °FFog.2 mph100%29.95 "Hg2 mi
3:50 AM54 °FFog.6 mph100%29.95 "Hg3 mi
3:20 AM54 °FFog.3 mph100%29.95 "Hg4 mi
2:50 AM52 °FFog.2 mph100%29.95 "Hg4 mi
1:50 AM55 °FPassing clouds.3 mph100%29.95 "HgN/A
1:20 AM57 °FClear.7 mph94%29.95 "Hg10 mi
12:20 AM57 °FClear.2 mph94%29.95 "Hg10 mi
11:50 PM
Sep 16
57 °FClear.2 mph94%29.95 "Hg10 mi
11:20 PM57 °FClear.2 mph94%29.95 "Hg10 mi
Weather by CustomWeather, © 2014

See weather overviewHow to use our weather pages